EN

Hourly Weather Alvignano

Today, 23 January, Saturday

Time Temperature Precipitation Wind Pressure Humidity
00:00 +11°C° 1.1 mm 8 mps 741 mmHg 85%
01:00 +11°C° 1.1 mm 8 mps 740 mmHg 87%
02:00 +11°C° 2.6 mm 8 mps 740 mmHg 86%
03:00 +11°C° 2.6 mm 8 mps 740 mmHg 86%
04:00 +10°C° 2.6 mm 8 mps 740 mmHg 85%
05:00 +10°C° 1.2 mm 7 mps 740 mmHg 86%
06:00 +9°C° 1.2 mm 5 mps 740 mmHg 87%
07:00 +10°C° 1.2 mm 4 mps 740 mmHg 87%
08:00 +9°C° 0.3 mm 5 mps 740 mmHg 81%
09:00 +9°C° 0.3 mm 6 mps 740 mmHg 75%
10:00 +9°C° 0.3 mm 7 mps 740 mmHg 69%
11:00 +9°C° 0.4 mm 8 mps 740 mmHg 69%
12:00 +8°C° 0.4 mm 9 mps 740 mmHg 69%
13:00 +8°C° 0.4 mm 9 mps 740 mmHg 69%
14:00 +8°C° 0.6 mm 9 mps 740 mmHg 72%
15:00 +8°C° 0.6 mm 9 mps 740 mmHg 75%
16:00 +7°C° 0.6 mm 8 mps 740 mmHg 78%
17:00 +8°C° 0.7 mm 7 mps 740 mmHg 80%
18:00 +8°C° 0.7 mm 6 mps 740 mmHg 82%
19:00 +8°C° 0.7 mm 5 mps 740 mmHg 83%
20:00 +8°C° 0.8 mm 5 mps 740 mmHg 84%
21:00 +8°C° 0.8 mm 5 mps 740 mmHg 84%
22:00 +8°C° 0.8 mm 5 mps 740 mmHg 85%
23:00 +7°C° 0.6 mm 5 mps 740 mmHg 83%

Tomorrow, 24 January, Sunday

Time Temperature Precipitation Wind Pressure Humidity
00:00 +7°C° 0.6 mm 5 mps 740 mmHg 82%
01:00 +7°C° 0.6 mm 6 mps 740 mmHg 80%
02:00 +7°C° 0.4 mm 6 mps 740 mmHg 81%
03:00 +7°C° 0.4 mm 6 mps 740 mmHg 81%
04:00 +7°C° 0.4 mm 6 mps 740 mmHg 82%
05:00 +7°C° 0.1 mm 5 mps 740 mmHg 83%
06:00 +7°C° 0.1 mm 4 mps 740 mmHg 84%
07:00 +8°C° 0.1 mm 3 mps 740 mmHg 84%
08:00 +8°C° 0.6 mm 3 mps 740 mmHg 88%
09:00 +8°C° 0.6 mm 3 mps 739 mmHg 91%
10:00 +9°C° 0.6 mm 3 mps 739 mmHg 94%
11:00 +9°C° 4.7 mm 3 mps 738 mmHg 94%
12:00 +9°C° 4.7 mm 3 mps 737 mmHg 95%
13:00 +8°C° 4.7 mm 4 mps 735 mmHg 96%
14:00 +8°C° 7.1 mm 4 mps 735 mmHg 95%
15:00 +8°C° 7.1 mm 4 mps 734 mmHg 94%
16:00 +9°C° 7.1 mm 5 mps 733 mmHg 94%
17:00 +8°C° 1.4 mm 4 mps 734 mmHg 93%
18:00 +8°C° 1.4 mm 4 mps 734 mmHg 92%
19:00 +9°C° 1.4 mm 3 mps 734 mmHg 92%
20:00 +8°C° 0.1 mm 3 mps 735 mmHg 91%
21:00 +7°C° 0.1 mm 3 mps 736 mmHg 90%
22:00 +7°C° 0.1 mm 2 mps 737 mmHg 90%
23:00 +6°C° 0 mm 2 mps 737 mmHg 89%

Day after tomorrow, 25 January, Monday

Time Temperature Precipitation Wind Pressure Humidity
00:00 +5°C° 0 mm 3 mps 738 mmHg 89%
01:00 +5°C° 0 mm 3 mps 739 mmHg 88%
02:00 +5°C° 0 mm 2 mps 740 mmHg 88%
03:00 +5°C° 0 mm 2 mps 740 mmHg 88%
04:00 +5°C° 0 mm 2 mps 740 mmHg 88%
05:00 +5°C° 0.1 mm 2 mps 741 mmHg 87%
06:00 +5°C° 0.1 mm 2 mps 741 mmHg 86%
07:00 +4°C° 0.1 mm 3 mps 741 mmHg 86%
08:00 +5°C° 0.1 mm 4 mps 741 mmHg 79%
09:00 +6°C° 0.1 mm 5 mps 741 mmHg 73%
10:00 +7°C° 0.1 mm 6 mps 741 mmHg 67%
11:00 +7°C° 0.2 mm 6 mps 742 mmHg 66%
12:00 +6°C° 0.2 mm 7 mps 742 mmHg 65%
13:00 +7°C° 0.2 mm 8 mps 742 mmHg 64%
14:00 +8°C° 0.1 mm 7 mps 743 mmHg 66%
15:00 +7°C° 0.1 mm 6 mps 743 mmHg 68%
16:00 +7°C° 0.1 mm 4 mps 744 mmHg 69%
17:00 +6°C° 0 mm 4 mps 745 mmHg 73%
18:00 +5°C° 0 mm 3 mps 746 mmHg 77%
19:00 +5°C° 0 mm 2 mps 747 mmHg 80%
20:00 +4°C° 0 mm 2 mps 747 mmHg 81%
21:00 +5°C° 0 mm 1 mps 748 mmHg 81%
22:00 +5°C° 0 mm 1 mps 749 mmHg 81%
23:00 +5°C° 0 mm 1 mps 749 mmHg 79%

26 January, Tuesday

Time Temperature Precipitation Wind Pressure Humidity
00:00 +5°C° 0 mm 1 mps 749 mmHg 77%
01:00 +5°C° 0 mm 1 mps 749 mmHg 75%
02:00 +4°C° 0 mm 1 mps 749 mmHg 74%
03:00 +4°C° 0 mm 1 mps 749 mmHg 74%
04:00 +4°C° 0 mm 1 mps 749 mmHg 73%
05:00 +4°C° 0 mm 1 mps 750 mmHg 73%
06:00 +4°C° 0 mm 1 mps 750 mmHg 73%
07:00 +3°C° 0 mm 1 mps 750 mmHg 72%
08:00 +5°C° 0 mm 1 mps 750 mmHg 68%
09:00 +6°C° 0 mm 1 mps 751 mmHg 64%
10:00 +8°C° 0 mm 1 mps 751 mmHg 61%
11:00 +9°C° 0 mm 1 mps 751 mmHg 56%
12:00 +9°C° 0 mm 1 mps 751 mmHg 51%
13:00 +10°C° 0 mm 1 mps 751 mmHg 47%
14:00 +10°C° 0 mm 1 mps 751 mmHg 48%
15:00 +10°C° 0 mm 1 mps 751 mmHg 50%
16:00 +10°C° 0 mm 1 mps 751 mmHg 51%
17:00 +8°C° 0 mm 1 mps 751 mmHg 52%
18:00 +7°C° 0 mm 1 mps 752 mmHg 53%
19:00 +5°C° 0 mm 1 mps 752 mmHg 54%
20:00 +5°C° 0 mm 1 mps 752 mmHg 53%
21:00 +5°C° 0 mm 1 mps 753 mmHg 52%
22:00 +4°C° 0 mm 1 mps 753 mmHg 51%
23:00 +4°C° 0 mm 1 mps 753 mmHg 51%

27 January, Wednesday

Time Temperature Precipitation Wind Pressure Humidity
00:00 +4°C° 0 mm 1 mps 753 mmHg 51%
01:00 +4°C° 0 mm 1 mps 753 mmHg 51%
02:00 +4°C° 0 mm 1 mps 752 mmHg 52%
03:00 +4°C° 0 mm 1 mps 752 mmHg 52%
04:00 +3°C° 0 mm 0 mps 752 mmHg 53%
05:00 +3°C° 0 mm 0 mps 752 mmHg 53%
06:00 +4°C° 0 mm 0 mps 751 mmHg 54%
07:00 +4°C° 0 mm 0 mps 751 mmHg 54%
08:00 +5°C° 0 mm 1 mps 751 mmHg 58%
09:00 +6°C° 0 mm 1 mps 751 mmHg 61%
10:00 +7°C° 0 mm 1 mps 751 mmHg 65%
11:00 +7°C° 0.1 mm 1 mps 751 mmHg 71%
12:00 +7°C° 0.1 mm 1 mps 750 mmHg 77%
13:00 +7°C° 0.1 mm 1 mps 750 mmHg 83%
14:00 +7°C° 0 mm 1 mps 750 mmHg 84%
15:00 +8°C° 0 mm 1 mps 750 mmHg 84%
16:00 +8°C° 0 mm 1 mps 749 mmHg 85%
17:00 +8°C° 0 mm 1 mps 750 mmHg 85%
18:00 +6°C° 0 mm 2 mps 750 mmHg 86%
19:00 +6°C° 0 mm 2 mps 750 mmHg 87%
20:00 +5°C° 0 mm 2 mps 751 mmHg 84%
21:00 +5°C° 0 mm 2 mps 751 mmHg 82%
22:00 +4°C° 0 mm 2 mps 752 mmHg 80%
23:00 +4°C° 0 mm 2 mps 752 mmHg 75%

28 January, Thursday

Time Temperature Precipitation Wind Pressure Humidity
00:00 +4°C° 0 mm 2 mps 752 mmHg 70%
01:00 +3°C° 0 mm 2 mps 753 mmHg 65%
02:00 +4°C° 0 mm 1 mps 753 mmHg 62%
03:00 +4°C° 0 mm 1 mps 753 mmHg 59%
04:00 +4°C° 0 mm 1 mps 753 mmHg 56%
05:00 +4°C° 0 mm 1 mps 753 mmHg 56%
06:00 +4°C° 0 mm 1 mps 753 mmHg 56%
07:00 +4°C° 0 mm 1 mps 754 mmHg 56%
08:00 +6°C° 0 mm 1 mps 754 mmHg 53%
09:00 +7°C° 0 mm 1 mps 754 mmHg 50%
10:00 +9°C° 0 mm 1 mps 754 mmHg 48%
11:00 +10°C° 0 mm 1 mps 754 mmHg 49%
12:00 +10°C° 0 mm 2 mps 753 mmHg 51%
13:00 +11°C° 0 mm 3 mps 753 mmHg 52%
14:00 +10°C° 0 mm 3 mps 753 mmHg 59%
15:00 +10°C° 0 mm 3 mps 752 mmHg 66%
16:00 +9°C° 0 mm 2 mps 752 mmHg 73%
17:00 +8°C° 0 mm 2 mps 752 mmHg 77%
18:00 +7°C° 0 mm 2 mps 752 mmHg 81%
19:00 +7°C° 0 mm 1 mps 752 mmHg 85%
Show more